Time,TemperatureF,DewpointF,PressureIn,WindDirection,WindDirectionDegrees,WindSpeedMPH,WindSpeedGustMPH,Humidity,HourlyPrecipIn,Conditions,Clouds,dailyrainin,SoftwareType,DateUTC
2013-04-05 00:00:00,52.1,51.0,29.90,NE,40,3.0,5.0,96,0.01,,,0.00,WeatherTracker,2013-04-05 05:00:00,
2013-04-05 00:05:00,52.0,50.9,29.90,NE,41,2.0,5.0,96,0.01,,,0.00,WeatherTracker,2013-04-05 05:05:00,
2013-04-05 00:10:00,52.0,50.9,29.90,NE,41,1.0,5.0,96,0.01,,,0.00,WeatherTracker,2013-04-05 05:10:00,
2013-04-05 00:15:00,51.9,50.8,29.90,ENE,77,2.0,5.0,96,0.00,,,0.00,WeatherTracker,2013-04-05 05:15:00,
2013-04-05 00:20:00,51.9,50.8,29.90,ENE,67,2.0,5.0,96,0.00,,,0.00,WeatherTracker,2013-04-05 05:20:00,
2013-04-05 00:30:00,51.8,50.7,29.90,ENE,61,2.0,5.0,96,0.00,,,0.00,WeatherTracker,2013-04-05 05:30:00,
2013-04-05 00:35:00,51.7,50.6,29.89,ENE,61,2.0,4.0,96,0.00,,,0.00,WeatherTracker,2013-04-05 05:35:00,
2013-04-05 00:45:00,51.7,50.6,29.89,ESE,106,0.0,6.0,96,0.00,,,0.00,WeatherTracker,2013-04-05 05:45:00,
2013-04-05 00:50:00,51.6,50.5,29.89,East,88,0.0,5.0,96,0.00,,,0.00,WeatherTracker,2013-04-05 05:50:00,
2013-04-05 01:00:00,51.6,50.5,29.89,ENE,69,3.0,5.0,96,0.00,,,0.00,WeatherTracker,2013-04-05 06:00:00,
2013-04-05 01:05:00,51.6,50.5,29.90,NE,41,2.0,5.0,96,0.00,,,0.00,WeatherTracker,2013-04-05 06:05:00,
2013-04-05 01:10:00,51.5,50.4,29.90,NE,41,2.0,4.0,96,0.00,,,0.00,WeatherTracker,2013-04-05 06:10:00,
2013-04-05 01:20:00,51.4,50.3,29.91,NE,35,4.0,7.0,96,0.00,,,0.00,WeatherTracker,2013-04-05 06:20:00,
2013-04-05 01:25:00,51.3,50.2,29.91,NE,55,4.0,7.0,96,0.00,,,0.00,WeatherTracker,2013-04-05 06:25:00,
2013-04-05 01:30:00,51.2,50.1,29.91,NE,53,3.0,7.0,96,0.00,,,0.00,WeatherTracker,2013-04-05 06:30:00,
2013-04-05 01:35:00,51.2,50.1,29.91,ESE,103,4.0,6.0,96,0.00,,,0.00,WeatherTracker,2013-04-05 06:35:00,
2013-04-05 01:40:00,51.1,50.0,29.90,NE,55,3.0,6.0,96,0.00,,,0.00,WeatherTracker,2013-04-05 06:40:00,
2013-04-05 01:50:00,51.0,49.9,29.90,NE,55,0.0,4.0,96,0.00,,,0.00,WeatherTracker,2013-04-05 06:50:00,
2013-04-05 01:55:00,51.1,50.0,29.90,NE,55,0.0,3.0,96,0.00,,,0.00,WeatherTracker,2013-04-05 06:55:00,
2013-04-05 02:05:00,51.1,50.0,29.90,NNE,13,4.0,7.0,96,0.00,,,0.00,WeatherTracker,2013-04-05 07:05:00,
2013-04-05 02:15:00,51.0,49.9,29.90,North,5,3.0,8.0,96,0.00,,,0.00,WeatherTracker,2013-04-05 07:15:00,
2013-04-05 02:25:00,50.8,50.0,29.90,NNE,24,4.0,7.0,97,0.00,,,0.00,WeatherTracker,2013-04-05 07:25:00,
2013-04-05 02:30:00,50.7,49.9,29.90,NNE,18,4.0,7.0,97,0.00,,,0.00,WeatherTracker,2013-04-05 07:30:00,
2013-04-05 02:40:00,50.6,49.8,29.90,North,11,4.0,7.0,97,0.00,,,0.00,WeatherTracker,2013-04-05 07:40:00,
2013-04-05 02:45:00,50.6,49.8,29.90,NNE,17,5.0,6.0,97,0.00,,,0.00,WeatherTracker,2013-04-05 07:45:00,
2013-04-05 02:55:00,50.5,49.7,29.91,North,355,6.0,9.0,97,0.00,,,0.00,WeatherTracker,2013-04-05 07:55:00,
2013-04-05 03:05:00,50.2,49.4,29.91,North,11,6.0,9.0,97,0.00,,,0.00,WeatherTracker,2013-04-05 08:05:00,
2013-04-05 03:15:00,49.9,49.1,29.91,North,11,5.0,10.0,97,0.00,,,0.00,WeatherTracker,2013-04-05 08:15:00,
2013-04-05 03:20:00,49.9,49.1,29.91,NNE,25,6.0,11.0,97,0.00,,,0.00,WeatherTracker,2013-04-05 08:20:00,
2013-04-05 03:30:00,49.8,49.0,29.91,North,5,10.0,10.0,97,0.00,,,0.00,WeatherTracker,2013-04-05 08:30:00,
2013-04-05 03:40:00,49.8,49.0,29.91,North,5,6.0,10.0,97,0.00,,,0.00,WeatherTracker,2013-04-05 08:40:00,
2013-04-05 03:45:00,49.7,48.9,29.91,North,360,5.0,8.0,97,0.00,,,0.00,WeatherTracker,2013-04-05 08:45:00,
2013-04-05 03:55:00,49.7,48.9,29.91,North,5,8.0,10.0,97,0.00,,,0.00,WeatherTracker,2013-04-05 08:55:00,
2013-04-05 04:05:00,49.5,48.7,29.91,NE,38,4.0,10.0,97,0.00,,,0.00,WeatherTracker,2013-04-05 09:05:00,
2013-04-05 04:15:00,49.2,48.4,29.91,ENE,57,3.0,10.0,97,0.00,,,0.00,WeatherTracker,2013-04-05 09:15:00,
2013-04-05 04:20:00,49.1,48.3,29.90,NE,49,6.0,10.0,97,0.00,,,0.00,WeatherTracker,2013-04-05 09:20:00,
2013-04-05 04:25:00,49.1,48.3,29.90,ENE,60,3.0,10.0,97,0.01,,,0.01,WeatherTracker,2013-04-05 09:25:00,
2013-04-05 04:30:00,49.1,48.3,29.90,NNE,13,7.0,10.0,97,0.01,,,0.01,WeatherTracker,2013-04-05 09:30:00,
2013-04-05 04:40:00,49.2,48.4,29.91,North,355,5.0,10.0,97,0.01,,,0.01,WeatherTracker,2013-04-05 09:40:00,
2013-04-05 04:45:00,49.2,48.4,29.92,North,360,5.0,9.0,97,0.01,,,0.01,WeatherTracker,2013-04-05 09:45:00,
2013-04-05 04:50:00,49.2,48.4,29.92,North,355,5.0,9.0,97,0.01,,,0.01,WeatherTracker,2013-04-05 09:50:00,
2013-04-05 05:00:00,49.1,48.3,29.93,NNE,32,4.0,9.0,97,0.01,,,0.01,WeatherTracker,2013-04-05 10:00:00,
2013-04-05 05:10:00,49.2,48.4,29.93,North,10,5.0,8.0,97,0.01,,,0.01,WeatherTracker,2013-04-05 10:10:00,
2013-04-05 05:15:00,49.1,48.3,29.93,NNW,340,4.0,8.0,97,0.01,,,0.01,WeatherTracker,2013-04-05 10:15:00,
2013-04-05 05:25:00,49.1,48.3,29.93,North,355,4.0,8.0,97,0.00,,,0.01,WeatherTracker,2013-04-05 10:25:00,
2013-04-05 05:35:00,49.0,48.2,29.93,North,355,7.0,9.0,97,0.00,,,0.01,WeatherTracker,2013-04-05 10:35:00,
2013-04-05 05:40:00,49.0,48.2,29.93,NNW,346,9.0,11.0,97,0.00,,,0.01,WeatherTracker,2013-04-05 10:40:00,
2013-04-05 05:50:00,49.0,48.2,29.94,North,5,9.0,10.0,97,0.00,,,0.01,WeatherTracker,2013-04-05 10:50:00,
2013-04-05 05:55:00,49.0,48.2,29.94,North,355,5.0,10.0,97,0.00,,,0.01,WeatherTracker,2013-04-05 10:55:00,
2013-04-05 06:05:00,48.9,48.1,29.94,North,360,8.0,12.0,97,0.00,,,0.01,WeatherTracker,2013-04-05 11:05:00,
2013-04-05 06:15:00,48.9,48.1,29.95,North,355,7.0,11.0,97,0.00,,,0.01,WeatherTracker,2013-04-05 11:15:00,
2013-04-05 06:25:00,48.7,47.9,29.95,NNE,13,7.0,11.0,97,0.00,,,0.01,WeatherTracker,2013-04-05 11:25:00,
2013-04-05 06:35:00,48.6,47.8,29.96,NNE,28,7.0,11.0,97,0.00,,,0.01,WeatherTracker,2013-04-05 11:35:00,
2013-04-05 06:45:00,48.6,47.8,29.96,NNW,346,6.0,10.0,97,0.01,,,0.02,WeatherTracker,2013-04-05 11:45:00,
2013-04-05 06:50:00,48.5,47.7,29.96,North,355,9.0,12.0,97,0.01,,,0.02,WeatherTracker,2013-04-05 11:50:00,
2013-04-05 06:55:00,48.5,47.7,29.97,NNE,14,8.0,12.0,97,0.01,,,0.02,WeatherTracker,2013-04-05 11:55:00,
2013-04-05 07:05:00,48.4,47.6,29.98,North,355,8.0,14.0,97,0.01,,,0.02,WeatherTracker,2013-04-05 12:05:00,
2013-04-05 07:10:00,48.2,47.4,29.98,North,360,8.0,15.0,97,0.01,,,0.02,WeatherTracker,2013-04-05 12:10:00,
2013-04-05 07:15:00,48.1,47.3,29.99,NNW,348,6.0,15.0,97,0.01,,,0.02,WeatherTracker,2013-04-05 12:15:00,
2013-04-05 07:25:00,47.9,46.8,29.99,NNW,344,9.0,15.0,96,0.01,,,0.02,WeatherTracker,2013-04-05 12:25:00,
2013-04-05 07:35:00,47.7,46.6,29.99,NNE,12,9.0,13.0,96,0.01,,,0.02,WeatherTracker,2013-04-05 12:35:00,
2013-04-05 07:40:00,47.7,46.6,29.99,NNE,23,5.0,14.0,96,0.00,,,0.02,WeatherTracker,2013-04-05 12:40:00,
2013-04-05 07:45:00,47.7,46.6,29.99,North,5,8.0,14.0,96,0.00,,,0.02,WeatherTracker,2013-04-05 12:45:00,
2013-04-05 07:55:00,47.6,46.5,30.00,North,11,5.0,12.0,96,0.00,,,0.02,WeatherTracker,2013-04-05 12:55:00,
2013-04-05 08:05:00,47.7,46.6,30.00,NNE,20,3.0,10.0,96,0.00,,,0.02,WeatherTracker,2013-04-05 13:05:00,
2013-04-05 08:10:00,47.6,46.5,30.00,NNE,31,8.0,12.0,96,0.00,,,0.02,WeatherTracker,2013-04-05 13:10:00,
2013-04-05 08:20:00,47.8,46.7,30.00,NNE,16,8.0,12.0,96,0.00,,,0.02,WeatherTracker,2013-04-05 13:20:00,
2013-04-05 08:25:00,47.7,46.6,30.00,NNE,17,8.0,12.0,96,0.00,,,0.02,WeatherTracker,2013-04-05 13:25:00,
2013-04-05 08:35:00,47.9,46.8,30.01,North,360,8.0,12.0,96,0.00,,,0.02,WeatherTracker,2013-04-05 13:35:00,
2013-04-05 08:40:00,47.9,46.8,30.01,North,360,9.0,12.0,96,0.00,,,0.02,WeatherTracker,2013-04-05 13:40:00,
2013-04-05 08:45:00,48.0,46.9,30.01,NNE,12,7.0,12.0,96,0.00,,,0.02,WeatherTracker,2013-04-05 13:45:00,
2013-04-05 08:55:00,48.0,46.6,30.01,North,360,7.0,13.0,95,0.00,,,0.02,WeatherTracker,2013-04-05 13:55:00,
2013-04-05 09:00:00,48.1,46.7,30.01,North,360,6.0,13.0,95,0.00,,,0.02,WeatherTracker,2013-04-05 14:00:00,
2013-04-05 09:05:00,48.1,46.7,30.01,NNE,15,9.0,14.0,95,0.00,,,0.02,WeatherTracker,2013-04-05 14:05:00,
2013-04-05 09:10:00,48.1,46.5,30.01,North,11,10.0,14.0,94,0.00,,,0.02,WeatherTracker,2013-04-05 14:10:00,
2013-04-05 09:20:00,48.0,46.4,30.02,North,5,7.0,15.0,94,0.00,,,0.02,WeatherTracker,2013-04-05 14:20:00,
2013-04-05 09:25:00,48.1,46.5,30.02,NNW,340,10.0,15.0,94,0.00,,,0.02,WeatherTracker,2013-04-05 14:25:00,
2013-04-05 09:35:00,48.4,46.8,30.02,NNE,15,10.0,15.0,94,0.00,,,0.02,WeatherTracker,2013-04-05 14:35:00,
2013-04-05 09:45:00,49.0,47.1,30.03,NNW,338,13.0,13.0,93,0.00,,,0.02,WeatherTracker,2013-04-05 14:45:00,
2013-04-05 09:55:00,49.0,46.8,30.03,NNE,26,12.0,19.0,92,0.00,,,0.02,WeatherTracker,2013-04-05 14:55:00,
2013-04-05 10:00:00,49.2,46.7,30.03,NNE,22,8.0,19.0,91,0.00,,,0.02,WeatherTracker,2013-04-05 15:00:00,
2013-04-05 10:05:00,49.4,46.9,30.03,North,9,12.0,19.0,91,0.00,,,0.02,WeatherTracker,2013-04-05 15:05:00,
2013-04-05 10:10:00,49.4,46.9,30.04,North,360,8.0,12.0,91,0.00,,,0.02,WeatherTracker,2013-04-05 15:10:00,
2013-04-05 10:20:00,49.3,46.8,30.04,North,355,7.0,12.0,91,0.00,,,0.02,WeatherTracker,2013-04-05 15:20:00,
2013-04-05 10:30:00,49.3,46.5,30.03,NNE,16,8.0,14.0,90,0.00,,,0.02,WeatherTracker,2013-04-05 15:30:00,
2013-04-05 10:35:00,49.4,46.6,30.03,NE,35,5.0,12.0,90,0.00,,,0.02,WeatherTracker,2013-04-05 15:35:00,
2013-04-05 10:45:00,49.6,46.8,30.04,North,9,8.0,12.0,90,0.00,,,0.02,WeatherTracker,2013-04-05 15:45:00,
2013-04-05 10:55:00,49.4,46.3,30.05,NNW,327,7.0,11.0,89,0.00,,,0.02,WeatherTracker,2013-04-05 15:55:00,
2013-04-05 11:00:00,49.2,46.1,30.05,North,349,7.0,13.0,89,0.00,,,0.02,WeatherTracker,2013-04-05 16:00:00,
2013-04-05 11:05:00,49.2,46.4,30.05,NW,324,7.0,13.0,90,0.00,,,0.02,WeatherTracker,2013-04-05 16:05:00,
2013-04-05 11:10:00,49.3,46.5,30.05,NNE,12,6.0,10.0,90,0.00,,,0.02,WeatherTracker,2013-04-05 16:10:00,
2013-04-05 11:15:00,49.5,46.7,30.05,NE,34,5.0,10.0,90,0.00,,,0.02,WeatherTracker,2013-04-05 16:15:00,
2013-04-05 11:25:00,49.9,46.8,30.05,North,351,10.0,10.0,89,0.00,,,0.02,WeatherTracker,2013-04-05 16:25:00,
2013-04-05 11:30:00,50.1,47.0,30.05,NNW,332,4.0,11.0,89,0.00,,,0.02,WeatherTracker,2013-04-05 16:30:00,
2013-04-05 11:35:00,50.4,47.3,30.05,NNW,328,7.0,11.0,89,0.00,,,0.02,WeatherTracker,2013-04-05 16:35:00,
2013-04-05 11:45:00,50.9,47.8,30.05,NNW,345,4.0,9.0,89,0.00,,,0.02,WeatherTracker,2013-04-05 16:45:00,
2013-04-05 11:50:00,51.4,48.0,30.05,NNW,331,6.0,8.0,88,0.00,,,0.02,WeatherTracker,2013-04-05 16:50:00,
2013-04-05 12:00:00,51.9,47.5,30.05,North,9,6.0,12.0,85,0.00,,,0.02,WeatherTracker,2013-04-05 17:00:00,
2013-04-05 12:05:00,51.9,47.8,30.04,NNE,28,4.0,10.0,86,0.00,,,0.02,WeatherTracker,2013-04-05 17:05:00,
2013-04-05 12:15:00,52.1,47.7,30.04,NNW,340,4.0,8.0,85,0.00,,,0.02,WeatherTracker,2013-04-05 17:15:00,
2013-04-05 12:25:00,52.3,47.9,30.04,NNW,343,6.0,9.0,85,0.00,,,0.02,WeatherTracker,2013-04-05 17:25:00,
2013-04-05 12:30:00,52.6,48.2,30.03,North,355,5.0,9.0,85,0.00,,,0.02,WeatherTracker,2013-04-05 17:30:00,
2013-04-05 12:35:00,52.8,48.4,30.03,NNE,13,3.0,9.0,85,0.00,,,0.02,WeatherTracker,2013-04-05 17:35:00,
2013-04-05 12:45:00,53.1,48.4,30.03,North,360,3.0,9.0,84,0.00,,,0.02,WeatherTracker,2013-04-05 17:45:00,
2013-04-05 12:50:00,53.2,48.8,30.04,NNW,328,5.0,10.0,85,0.00,,,0.02,WeatherTracker,2013-04-05 17:50:00,
2013-04-05 12:55:00,53.2,48.5,30.04,NW,315,3.0,10.0,84,0.00,,,0.02,WeatherTracker,2013-04-05 17:55:00,
2013-04-05 13:00:00,53.3,48.9,30.03,NNW,340,6.0,8.0,85,0.00,,,0.02,WeatherTracker,2013-04-05 18:00:00,
2013-04-05 13:05:00,53.4,48.7,30.03,North,11,4.0,11.0,84,0.00,,,0.02,WeatherTracker,2013-04-05 18:05:00,
2013-04-05 13:15:00,53.8,49.1,30.03,NNW,337,3.0,10.0,84,0.00,,,0.02,WeatherTracker,2013-04-05 18:15:00,
2013-04-05 13:20:00,54.1,49.4,30.03,NNE,26,7.0,10.0,84,0.00,,,0.02,WeatherTracker,2013-04-05 18:20:00,
2013-04-05 13:30:00,54.5,48.8,30.03,NNW,327,8.0,14.0,81,0.00,,,0.02,WeatherTracker,2013-04-05 18:30:00,
2013-04-05 13:35:00,54.5,48.8,30.03,NNW,346,9.0,14.0,81,0.00,,,0.02,WeatherTracker,2013-04-05 18:35:00,
2013-04-05 13:40:00,54.5,48.5,30.03,NNW,333,7.0,13.0,80,0.00,,,0.02,WeatherTracker,2013-04-05 18:40:00,
2013-04-05 13:50:00,54.4,48.4,30.03,NW,311,9.0,15.0,80,0.00,,,0.02,WeatherTracker,2013-04-05 18:50:00,
2013-04-05 14:00:00,54.9,49.2,30.03,North,9,6.0,16.0,81,0.00,,,0.02,WeatherTracker,2013-04-05 19:00:00,
2013-04-05 14:10:00,55.1,48.7,30.02,North,355,7.0,12.0,79,0.00,,,0.02,WeatherTracker,2013-04-05 19:10:00,
2013-04-05 14:20:00,55.5,48.4,30.02,NNE,15,9.0,13.0,77,0.00,,,0.02,WeatherTracker,2013-04-05 19:20:00,
2013-04-05 14:25:00,55.7,48.9,30.02,North,9,7.0,13.0,78,0.00,,,0.02,WeatherTracker,2013-04-05 19:25:00,
2013-04-05 14:30:00,55.8,49.0,30.02,NNW,342,8.0,13.0,78,0.00,,,0.02,WeatherTracker,2013-04-05 19:30:00,
2013-04-05 14:35:00,55.7,48.6,30.02,North,355,8.0,13.0,77,0.00,,,0.02,WeatherTracker,2013-04-05 19:35:00,
2013-04-05 14:40:00,55.8,48.7,30.02,NNW,335,8.0,13.0,77,0.00,,,0.02,WeatherTracker,2013-04-05 19:40:00,
2013-04-05 14:45:00,56.0,48.9,30.02,North,360,7.0,13.0,77,0.00,,,0.02,WeatherTracker,2013-04-05 19:45:00,
2013-04-05 14:50:00,56.5,49.4,30.01,NNE,24,10.0,14.0,77,0.00,,,0.02,WeatherTracker,2013-04-05 19:50:00,
2013-04-05 14:55:00,56.6,48.8,30.01,NNE,28,6.0,14.0,75,0.00,,,0.02,WeatherTracker,2013-04-05 19:55:00,
2013-04-05 15:00:00,56.9,48.7,30.01,NNE,14,11.0,14.0,74,0.00,,,0.02,WeatherTracker,2013-04-05 20:00:00,
2013-04-05 15:10:00,57.6,49.4,30.01,North,5,7.0,12.0,74,0.00,,,0.02,WeatherTracker,2013-04-05 20:10:00,
2013-04-05 15:15:00,57.8,49.2,30.01,North,5,10.0,15.0,73,0.00,,,0.02,WeatherTracker,2013-04-05 20:15:00,
2013-04-05 15:25:00,58.0,49.4,30.01,NNE,30,7.0,15.0,73,0.00,,,0.02,WeatherTracker,2013-04-05 20:25:00,
2013-04-05 15:30:00,58.2,48.8,30.00,NE,51,6.0,14.0,71,0.00,,,0.02,WeatherTracker,2013-04-05 20:30:00,
2013-04-05 15:40:00,58.5,49.9,30.00,NNE,16,7.0,11.0,73,0.00,,,0.02,WeatherTracker,2013-04-05 20:40:00,
2013-04-05 15:50:00,59.3,49.9,30.00,North,5,7.0,13.0,71,0.00,,,0.02,WeatherTracker,2013-04-05 20:50:00,
2013-04-05 16:00:00,59.2,49.8,30.00,North,360,5.0,12.0,71,0.00,,,0.02,WeatherTracker,2013-04-05 21:00:00,
2013-04-05 16:05:00,59.8,50.4,30.00,North,360,8.0,12.0,71,0.00,,,0.02,WeatherTracker,2013-04-05 21:05:00,
2013-04-05 16:15:00,60.9,49.9,30.00,NNW,346,10.0,14.0,67,0.00,,,0.02,WeatherTracker,2013-04-05 21:15:00,
2013-04-05 16:25:00,61.3,50.6,30.00,North,5,10.0,13.0,68,0.00,,,0.02,WeatherTracker,2013-04-05 21:25:00,
2013-04-05 16:35:00,61.1,49.7,30.00,North,10,6.0,14.0,66,0.00,,,0.02,WeatherTracker,2013-04-05 21:35:00,
2013-04-05 16:45:00,61.5,50.0,30.00,NE,56,10.0,13.0,66,0.00,,,0.02,WeatherTracker,2013-04-05 21:45:00,
2013-04-05 16:50:00,61.8,50.3,30.00,ENE,63,6.0,13.0,66,0.00,,,0.02,WeatherTracker,2013-04-05 21:50:00,
2013-04-05 16:55:00,62.0,50.1,30.00,NE,46,11.0,12.0,65,0.00,,,0.02,WeatherTracker,2013-04-05 21:55:00,
2013-04-05 17:05:00,62.2,50.7,30.00,NNE,28,4.0,14.0,66,0.00,,,0.02,WeatherTracker,2013-04-05 22:05:00,
2013-04-05 17:15:00,62.6,50.2,30.00,North,5,5.0,11.0,64,0.00,,,0.02,WeatherTracker,2013-04-05 22:15:00,
2013-04-05 17:20:00,62.6,50.7,30.00,NNE,15,5.0,10.0,65,0.00,,,0.02,WeatherTracker,2013-04-05 22:20:00,
2013-04-05 17:25:00,62.7,50.3,30.00,North,5,8.0,9.0,64,0.00,,,0.02,WeatherTracker,2013-04-05 22:25:00,
2013-04-05 17:30:00,62.8,50.0,30.00,NNW,341,4.0,9.0,63,0.00,,,0.02,WeatherTracker,2013-04-05 22:30:00,
2013-04-05 17:40:00,62.9,50.5,30.00,NNW,347,9.0,9.0,64,0.00,,,0.02,WeatherTracker,2013-04-05 22:40:00,
2013-04-05 17:50:00,63.2,50.0,30.00,NNW,338,6.0,11.0,62,0.00,,,0.02,WeatherTracker,2013-04-05 22:50:00,
2013-04-05 17:55:00,63.1,50.3,30.00,NNE,15,5.0,11.0,63,0.00,,,0.02,WeatherTracker,2013-04-05 22:55:00,
2013-04-05 18:00:00,63.0,50.2,30.00,NNW,342,4.0,9.0,63,0.00,,,0.02,WeatherTracker,2013-04-05 23:00:00,
2013-04-05 18:05:00,63.0,49.3,30.00,North,360,8.0,9.0,61,0.00,,,0.02,WeatherTracker,2013-04-05 23:05:00,
2013-04-05 18:10:00,63.0,49.8,30.00,NNW,346,5.0,9.0,62,0.00,,,0.02,WeatherTracker,2013-04-05 23:10:00,
2013-04-05 18:15:00,63.1,50.3,30.00,NW,317,3.0,9.0,63,0.00,,,0.02,WeatherTracker,2013-04-05 23:15:00,
2013-04-05 18:20:00,63.1,50.7,30.00,North,360,5.0,6.0,64,0.00,,,0.02,WeatherTracker,2013-04-05 23:20:00,
2013-04-05 18:30:00,62.8,50.4,30.01,North,10,4.0,8.0,64,0.00,,,0.02,WeatherTracker,2013-04-05 23:30:00,
2013-04-05 18:40:00,62.4,51.7,30.01,North,10,1.0,5.0,68,0.00,,,0.02,WeatherTracker,2013-04-05 23:40:00,
2013-04-05 18:50:00,61.9,51.2,30.01,North,10,2.0,3.0,68,0.00,,,0.02,WeatherTracker,2013-04-05 23:50:00,
2013-04-05 19:00:00,60.8,49.8,30.02,NW,319,4.0,4.0,67,0.00,,,0.02,WeatherTracker,2013-04-06 00:00:00,
2013-04-05 19:05:00,60.4,49.8,30.02,NW,319,1.0,4.0,68,0.00,,,0.02,WeatherTracker,2013-04-06 00:05:00,
2013-04-05 19:10:00,60.1,49.5,30.02,NW,319,2.0,4.0,68,0.00,,,0.02,WeatherTracker,2013-04-06 00:10:00,
2013-04-05 19:20:00,59.4,49.6,30.02,NW,319,2.0,4.0,70,0.00,,,0.02,WeatherTracker,2013-04-06 00:20:00,
2013-04-05 19:25:00,59.0,50.0,30.02,NW,319,1.0,3.0,72,0.00,,,0.02,WeatherTracker,2013-04-06 00:25:00,
2013-04-05 19:30:00,58.5,49.1,30.03,NW,319,1.0,3.0,71,0.00,,,0.02,WeatherTracker,2013-04-06 00:30:00,
2013-04-05 19:40:00,57.9,48.9,30.03,NW,319,2.0,3.0,72,0.00,,,0.02,WeatherTracker,2013-04-06 00:40:00,
2013-04-05 19:45:00,57.7,48.7,30.03,NW,319,1.0,4.0,72,0.00,,,0.02,WeatherTracker,2013-04-06 00:45:00,
2013-04-05 19:50:00,57.5,49.3,30.03,NW,319,3.0,4.0,74,0.00,,,0.02,WeatherTracker,2013-04-06 00:50:00,
2013-04-05 20:00:00,56.9,49.1,30.04,NW,319,2.0,4.0,75,0.00,,,0.02,WeatherTracker,2013-04-06 01:00:00,
2013-04-05 20:10:00,56.2,48.7,30.04,NW,319,2.0,4.0,76,0.00,,,0.02,WeatherTracker,2013-04-06 01:10:00,
2013-04-05 20:15:00,55.9,48.4,30.04,NW,319,1.0,4.0,76,0.00,,,0.02,WeatherTracker,2013-04-06 01:15:00,
2013-04-05 20:25:00,55.7,47.9,30.04,NW,319,0.0,2.0,75,0.00,,,0.02,WeatherTracker,2013-04-06 01:25:00,
2013-04-05 20:30:00,55.5,47.7,30.04,NW,319,0.0,2.0,75,0.00,,,0.02,WeatherTracker,2013-04-06 01:30:00,
2013-04-05 20:40:00,55.5,48.4,30.05,NW,319,1.0,3.0,77,0.00,,,0.02,WeatherTracker,2013-04-06 01:40:00,
2013-04-05 20:50:00,55.4,48.0,30.05,NW,319,1.0,3.0,76,0.00,,,0.02,WeatherTracker,2013-04-06 01:50:00,
2013-04-05 20:55:00,55.3,47.9,30.05,NW,319,0.0,2.0,76,0.00,,,0.02,WeatherTracker,2013-04-06 01:55:00,
2013-04-05 21:00:00,55.1,47.7,30.06,NW,319,0.0,2.0,76,0.00,,,0.02,WeatherTracker,2013-04-06 02:00:00,
2013-04-05 21:10:00,54.6,47.9,30.06,NW,319,0.0,0.0,78,0.00,,,0.02,WeatherTracker,2013-04-06 02:10:00,
2013-04-05 21:15:00,54.3,48.3,30.06,NW,319,0.0,0.0,80,0.00,,,0.02,WeatherTracker,2013-04-06 02:15:00,
2013-04-05 21:25:00,53.7,47.7,30.06,NW,319,0.0,0.0,80,0.00,,,0.02,WeatherTracker,2013-04-06 02:25:00,
2013-04-05 21:30:00,53.5,48.1,30.06,NW,319,0.0,0.0,82,0.00,,,0.02,WeatherTracker,2013-04-06 02:30:00,
2013-04-05 21:35:00,53.1,47.8,30.06,NW,319,0.0,0.0,82,0.00,,,0.02,WeatherTracker,2013-04-06 02:35:00,
2013-04-05 21:40:00,52.7,47.4,30.06,NW,319,1.0,2.0,82,0.00,,,0.02,WeatherTracker,2013-04-06 02:40:00,
2013-04-05 21:50:00,52.4,47.4,30.06,NW,319,0.0,1.0,83,0.00,,,0.02,WeatherTracker,2013-04-06 02:50:00,
2013-04-05 22:00:00,51.9,47.8,30.07,NW,319,1.0,3.0,86,0.00,,,0.02,WeatherTracker,2013-04-06 03:00:00,
2013-04-05 22:05:00,51.3,47.3,30.07,NW,319,0.0,3.0,86,0.00,,,0.02,WeatherTracker,2013-04-06 03:05:00,
2013-04-05 22:15:00,50.9,47.2,30.07,NW,319,0.0,0.0,87,0.00,,,0.02,WeatherTracker,2013-04-06 03:15:00,
2013-04-05 22:30:00,51.2,47.2,30.07,NW,319,0.0,0.0,86,0.00,,,0.02,WeatherTracker,2013-04-06 03:30:00,
2013-04-05 22:40:00,51.5,47.1,30.07,NW,319,2.0,3.0,85,0.00,,,0.02,WeatherTracker,2013-04-06 03:40:00,
2013-04-05 22:45:00,51.5,47.1,30.07,NW,319,1.0,3.0,85,0.00,,,0.02,WeatherTracker,2013-04-06 03:45:00,
2013-04-05 22:50:00,51.5,47.1,30.07,NW,319,0.0,3.0,85,0.00,,,0.02,WeatherTracker,2013-04-06 03:50:00,
2013-04-05 23:00:00,51.4,47.0,30.08,NW,319,0.0,2.0,85,0.00,,,0.02,WeatherTracker,2013-04-06 04:00:00,
2013-04-05 23:05:00,51.4,47.0,30.07,NW,319,0.0,3.0,85,0.00,,,0.02,WeatherTracker,2013-04-06 04:05:00,
2013-04-05 23:10:00,51.3,46.6,30.07,NW,319,0.0,3.0,84,0.00,,,0.02,WeatherTracker,2013-04-06 04:10:00,
2013-04-05 23:20:00,50.8,46.1,30.08,NW,319,0.0,0.0,84,0.00,,,0.02,WeatherTracker,2013-04-06 04:20:00,
2013-04-05 23:25:00,50.6,45.9,30.08,NW,319,0.0,0.0,84,0.00,,,0.02,WeatherTracker,2013-04-06 04:25:00,
2013-04-05 23:30:00,50.4,46.1,30.08,NW,319,0.0,0.0,85,0.00,,,0.02,WeatherTracker,2013-04-06 04:30:00,
2013-04-05 23:35:00,50.2,45.9,30.08,NW,319,0.0,0.0,85,0.00,,,0.02,WeatherTracker,2013-04-06 04:35:00,
2013-04-05 23:45:00,49.6,45.3,30.09,NW,319,0.0,0.0,85,0.00,,,0.02,WeatherTracker,2013-04-06 04:45:00,
2013-04-05 23:55:00,49.0,44.7,30.09,NW,319,0.0,0.0,85,0.00,,,0.02,WeatherTracker,2013-04-06 04:55:00,